Regional Weather Roundup
Issued by NWS

Home | Current Version | Previous Version | Text Only | Print | Product List | Glossary On
Versions: 1 2 3 4 5 6 7 8 9 10 11 12 13 14 15 16 17 18 19 20 21 22 23 24 25 26 27 28 29 30 31 32 33 34 35 36 37 38 39 40 41 42 43 44 45 46 47 48 49 50
000
ASCA44 KEWX 310720
RWRMX

LATIN AMERICA AND CARIBBEAN REGIONAL WEATHER ROUNDUP
NATIONAL WEATHER SERVICE AUSTIN/SAN ANTONIO TX
200 AM CDT THU JUL 31 2014

NOTE: "FAIR" INDICATED FEW OR NO CLOUDS BELOW 12,000 FEET WITH NO
SIGNIFICANT WEATHER AND/OR OBSTRUCTIONS TO VISIBILITY.

BAJA CALIFORNIA

CITY           SKY/WX    TMP DP  RH WIND       PRES   REMARKS
LA PAZ           N/A    N/A N/A N/A MISG        N/A
TIJUANA        PTCLDY    70  64  83 CALM      29.97

NORTHWESTERN MEXICO

CITY           SKY/WX    TMP DP  RH WIND       PRES   REMARKS

NORTHEASTERN MEXICO

CITY           SKY/WX    TMP DP  RH WIND       PRES   REMARKS
MONTERREY      CLEAR     81  68  65 E8        29.93S
SALTILLO       CLEAR     75  59  57 CALM      30.18S

WESTERN MEXICO

CITY           SKY/WX    TMP DP  RH WIND       PRES   REMARKS
DEL BAJIO      MOCLDY    66  59  77 CALM      30.34R
GUADALAJARA    CLEAR     66  61  82 CALM      30.22F
MAZATLAN       PTCLDY    81  73  78 CALM      29.91S
P. VALLARTA    PTCLDY    81  75  83 CALM      29.93S
ZACATECAS      MOCLDY    63  45  51 SW8       30.34

CENTRAL MEXICO

CITY           SKY/WX    TMP DP  RH WIND       PRES   REMARKS
MEXICO CITY    MOCLDY    63  55  77 NW5       30.39F
MORELIA        MOCLDY    63  59  88 N3        30.32R
QUERETARO      PTCLDY    63  55  77 CALM      30.34F
S. LUIS POTOSI CLEAR     61  54  77 SE7       30.30
TOLUCA         MOCLDY    54  50  87 W5        30.48F

SOUTHERN MEXICO

CITY           SKY/WX    TMP DP  RH WIND       PRES   REMARKS

YUCATAN PENINSULA

CITY           SKY/WX    TMP DP  RH WIND       PRES   REMARKS
CANCUN         PTCLDY    75  73  94 CALM      30.01F
CHETUMAL         N/A    N/A N/A N/A MISG        N/A
CD. DEL CARMEN   N/A    N/A N/A N/A MISG        N/A
COZUMEL        PTCLDY    73  73 100 CALM      30.02S
MERIDA         MOCLDY    81  72  74 E9        30.01S
MINATITLAN       N/A    N/A N/A N/A MISG        N/A
TAPACHULA      PTCLDY    75  72  88 CALM      29.92F

CENTRAL AMERICA

CITY           SKY/WX    TMP DP  RH WIND       PRES   REMARKS
MANAGUA        MOSUNNY   81  73  78 E7        29.89S

CARIBBEAN

CITY           SKY/WX    TMP DP  RH WIND       PRES   REMARKS
CURACAO        PTCLDY    81  75  83 SE13      29.92S
KINGSTON       PTCLDY    82  73  74 N3        29.94S
NASSAU         MOCLDY    79  75  89 CALM      30.01F
SAN JUAN       PTCLDY    79  73  83 CALM      29.99F
SANTO DOMINGO  PTCLDY    75  72  88 NE6       29.94F
ST. CROIX      CLEAR     75  72  88 N5        29.99F
ST. MAARTEN    PTCLDY    81  73  78 E7        30.00S
ST. THOMAS     PTCLDY    81  79  94 CALM      29.98F

$$



USA.gov is the U.S. government's official web portal to all federal, state and local government web resources and services.